Oakes, ND

8:14 PM CST on November 11, 2019 (GMT -0600)
Oakes

Weather History for K2D5 - September, 2019

Change the Weather History Date:

Saturday, September 21, 2019

  Actual Average (KP67) Record (KP67)
Temperature  
Mean Temperature 66 °F -  
Max Temperature 78 °F 68 °F 69 °F (1997)
Min Temperature 55 °F 44 °F 37 °F (1997)
Cooling Degree Days 2    
Growing Degree Days 16 (Base 50)    
Moisture  
Dew Point 63 °F    
Average Humidity 85    
Maximum Humidity 100    
Minimum Humidity 54    
Precipitation  
Precipitation 0.00 in - - ()
Sea Level Pressure  
Sea Level Pressure 29.70 in    
Wind  
Wind Speed 15 mph (SW)    
Max Wind Speed 24 mph    
Max Gust Speed 32 mph    
Visibility 10 miles    
Events Thunderstorm    
Averages and records for this station are not official NWS values.
T = Trace of Precipitation, MM = Missing Value Source: NWS Daily Summary

Daily Weather History Graph

Daily Weather History Graph

Search for Another Location

Airport or City:

Astronomy

Sep. 21, 2019 Rise Set
Actual Time 7:17 AM CDT 7:32 PM CDT
Civil Twilight 6:47 AM CDT 8:02 PM CDT
Nautical Twilight 6:12 AM CDT 8:37 PM CDT
Astronomical Twilight 5:36 AM CDT 9:13 PM CDT
Moon 11:49 PM CDT (9/21) 2:46 PM CDT (9/21)
Length of Visible Light 13h 14m
Length of Day
12h 14m
Waning Gibbous, 54% of the Moon is Illuminated
Sep 21
Waning Gibbous
Sep 21
Last Quarter
Sep 28
New
Oct 5
First Quarter
Oct 13
Full

Hourly Weather History & Observations

Time (CDT) Temp. Dew Point Humidity Pressure Visibility Wind Dir Wind Speed Gust Speed Precip Events Conditions
12:15 AM 73.4 °F 71.6 °F 94% 29.70 in 10.0 mi SSE 12.7 mph - N/A   Clear
12:35 AM 73.4 °F 71.6 °F 94% 29.70 in 10.0 mi SSE 11.5 mph - N/A   Clear
12:55 AM 73.4 °F 69.8 °F 88% 29.69 in 9.0 mi South 15.0 mph - N/A   Clear
1:15 AM 73.4 °F 69.8 °F 88% 29.69 in 10.0 mi South 16.1 mph 21.9 mph N/A   Clear
1:35 AM 73.4 °F 69.8 °F 88% 29.68 in 10.0 mi South 15.0 mph 23.0 mph N/A   Clear
1:55 AM 73.4 °F 69.8 °F 88% 29.67 in 10.0 mi South 17.3 mph - N/A   Clear
2:15 AM 71.6 °F 69.8 °F 94% 29.66 in 10.0 mi South 15.0 mph 21.9 mph N/A   Clear
2:35 AM 71.6 °F 69.8 °F 94% 29.66 in 10.0 mi South 17.3 mph 23.0 mph N/A   Scattered Clouds
2:55 AM 71.6 °F 69.8 °F 94% 29.66 in 10.0 mi South 15.0 mph 25.3 mph N/A   Overcast
3:15 AM 71.6 °F 71.6 °F 100% 29.66 in 7.0 mi South 19.6 mph 25.3 mph N/A Thunderstorm Mostly Cloudy
3:35 AM 71.6 °F 71.6 °F 100% 29.65 in 10.0 mi South 18.4 mph 26.5 mph N/A   Mostly Cloudy
3:55 AM 69.8 °F 69.8 °F 100% 29.64 in 10.0 mi South 16.1 mph 27.6 mph N/A   Mostly Cloudy
4:15 AM 69.8 °F 69.8 °F 100% 29.65 in 9.0 mi SSW 20.7 mph 27.6 mph N/A   Mostly Cloudy
4:55 AM 69.8 °F 69.8 °F 100% 29.65 in 9.0 mi WSW 20.7 mph - N/A   Overcast
5:15 AM 68.0 °F 68.0 °F 100% 29.69 in 10.0 mi WSW 19.6 mph 26.5 mph N/A   Overcast
5:35 AM 66.2 °F 66.2 °F 100% 29.64 in 1.5 mi NW 16.1 mph - N/A   Overcast
6:15 AM 62.6 °F 62.6 °F 100% 29.59 in 10.0 mi NE 12.7 mph 21.9 mph N/A   Scattered Clouds
6:35 AM 62.6 °F 62.6 °F 100% 29.63 in 10.0 mi ENE 5.8 mph 16.1 mph N/A   Clear
6:55 AM 60.8 °F 60.8 °F 100% 29.64 in 10.0 mi SE 5.8 mph - N/A   Clear
7:15 AM 60.8 °F 60.8 °F 100% 29.63 in 10.0 mi ESE 5.8 mph - N/A   Clear
7:35 AM 60.8 °F 60.8 °F 100% 29.64 in 10.0 mi SSE 5.8 mph - N/A   Clear
7:55 AM 60.8 °F 60.8 °F 100% 29.63 in 10.0 mi SSE 6.9 mph - N/A   Clear
8:15 AM 62.6 °F 62.6 °F 100% 29.63 in 4.0 mi South 8.1 mph - N/A   Clear
8:35 AM 64.4 °F 64.4 °F 100% 29.62 in 3.0 mi South 11.5 mph - N/A   Clear
8:55 AM 64.4 °F 64.4 °F 100% 29.63 in 9.0 mi SSW 11.5 mph - N/A   Clear
9:35 AM 66.2 °F 66.2 °F 100% 29.66 in 10.0 mi SW 19.6 mph - N/A   Scattered Clouds
9:55 AM 66.2 °F 66.2 °F 100% 29.66 in 10.0 mi SW 21.9 mph 27.6 mph N/A   Mostly Cloudy
10:15 AM 68.0 °F 66.2 °F 94% 29.67 in 10.0 mi SW 19.6 mph 27.6 mph N/A   Mostly Cloudy
10:35 AM 68.0 °F 66.2 °F 94% 29.67 in 10.0 mi SW 19.6 mph 26.5 mph N/A   Scattered Clouds
10:55 AM 69.8 °F 66.2 °F 88% 29.67 in 10.0 mi SW 17.3 mph 26.5 mph N/A   Mostly Cloudy
11:15 AM 69.8 °F 64.4 °F 83% 29.67 in 10.0 mi WSW 17.3 mph 24.2 mph N/A   Mostly Cloudy
11:35 AM 69.8 °F 64.4 °F 83% 29.67 in 10.0 mi SW 17.3 mph - N/A   Mostly Cloudy
11:55 AM 71.6 °F 64.4 °F 78% 29.67 in 10.0 mi WSW 16.1 mph 24.2 mph N/A   Overcast
12:15 PM 71.6 °F 64.4 °F 78% 29.67 in 10.0 mi SW 18.4 mph 25.3 mph N/A   Mostly Cloudy
12:35 PM 73.4 °F 64.4 °F 73% 29.66 in 10.0 mi SW 15.0 mph 21.9 mph N/A   Scattered Clouds
12:55 PM 75.2 °F 64.4 °F 69% 29.66 in 9.0 mi WSW 16.1 mph - N/A   Partly Cloudy
1:15 PM 75.2 °F 64.4 °F 69% 29.66 in 10.0 mi SW 15.0 mph 24.2 mph N/A   Scattered Clouds
1:35 PM 77.0 °F 64.4 °F 65% 29.66 in 10.0 mi WSW 13.8 mph - N/A   Partly Cloudy
1:55 PM 78.8 °F 62.6 °F 57% 29.66 in 10.0 mi WSW 16.1 mph 24.2 mph N/A   Clear
2:15 PM 78.8 °F 62.6 °F 57% 29.66 in 10.0 mi WSW 15.0 mph 24.2 mph N/A   Scattered Clouds
2:35 PM 77.0 °F 60.8 °F 57% 29.67 in 10.0 mi WSW 17.3 mph 25.3 mph N/A   Partly Cloudy
2:55 PM 78.8 °F 60.8 °F 54% 29.67 in 10.0 mi WSW 15.0 mph 23.0 mph N/A   Scattered Clouds
3:15 PM 78.8 °F 60.8 °F 54% 29.67 in 10.0 mi WSW 21.9 mph 28.8 mph N/A   Scattered Clouds
3:35 PM 77.0 °F 62.6 °F 61% 29.68 in 10.0 mi WSW 21.9 mph 32.2 mph N/A   Scattered Clouds
3:55 PM 75.2 °F 60.8 °F 61% 29.69 in 10.0 mi WSW 18.4 mph 26.5 mph N/A   Clear
4:15 PM 73.4 °F 60.8 °F 65% 29.70 in 10.0 mi West 20.7 mph 29.9 mph N/A   Scattered Clouds
4:35 PM 71.6 °F 60.8 °F 69% 29.71 in 10.0 mi West 24.2 mph 31.1 mph N/A   Mostly Cloudy
4:55 PM 71.6 °F 60.8 °F 69% 29.72 in 10.0 mi West 19.6 mph 28.8 mph N/A   Mostly Cloudy
5:15 PM 71.6 °F 59.0 °F 64% 29.72 in 10.0 mi WSW 18.4 mph 25.3 mph N/A   Partly Cloudy
5:35 PM 71.6 °F 59.0 °F 64% 29.72 in 10.0 mi WSW 20.7 mph 26.5 mph N/A   Clear
5:55 PM 69.8 °F 59.0 °F 68% 29.73 in 10.0 mi West 23.0 mph - N/A   Scattered Clouds
6:15 PM 68.0 °F 57.2 °F 68% 29.74 in 10.0 mi West 16.1 mph 24.2 mph N/A   Partly Cloudy
6:35 PM 68.0 °F 57.2 °F 68% 29.75 in 10.0 mi West 12.7 mph - N/A   Mostly Cloudy
6:55 PM 66.2 °F 57.2 °F 73% 29.75 in 10.0 mi West 11.5 mph 19.6 mph N/A   Mostly Cloudy
7:15 PM 64.4 °F 57.2 °F 77% 29.76 in 10.0 mi WSW 12.7 mph - N/A   Partly Cloudy
7:35 PM 64.4 °F 59.0 °F 83% 29.77 in 10.0 mi West 15.0 mph - N/A   Partly Cloudy
7:55 PM 62.6 °F 59.0 °F 88% 29.78 in 10.0 mi West 9.2 mph - N/A   Clear
8:15 PM 62.6 °F 59.0 °F 88% 29.79 in 10.0 mi WSW 10.4 mph - N/A   Clear
8:35 PM 62.6 °F 59.0 °F 88% 29.80 in 10.0 mi WSW 9.2 mph - N/A   Clear
8:55 PM 60.8 °F 59.0 °F 94% 29.81 in 10.0 mi WSW 9.2 mph - N/A   Clear
9:15 PM 59.0 °F 59.0 °F 100% 29.81 in 10.0 mi WSW 10.4 mph - N/A   Clear
9:35 PM 59.0 °F 59.0 °F 100% 29.82 in 10.0 mi West 9.2 mph - N/A   Partly Cloudy
9:55 PM 59.0 °F 59.0 °F 100% 29.82 in 10.0 mi West 10.4 mph - N/A   Partly Cloudy
10:15 PM 59.0 °F 59.0 °F 100% 29.83 in 10.0 mi West 12.7 mph - N/A   Clear
10:35 PM 59.0 °F 57.2 °F 94% 29.84 in 10.0 mi West 11.5 mph - N/A   Clear
10:55 PM 57.2 °F 55.4 °F 94% 29.85 in 10.0 mi WNW 15.0 mph - N/A   Clear
11:15 PM 57.2 °F 55.4 °F 94% 29.85 in 10.0 mi WNW 12.7 mph - N/A   Clear
11:35 PM 55.4 °F 53.6 °F 94% 29.85 in 10.0 mi WNW 12.7 mph - N/A   Clear
11:55 PM 55.4 °F 53.6 °F 94% 29.85 in 10.0 mi NW 8.1 mph - N/A   Clear